ACH6508 EDDF-EDDM

Flight info

Callsign ACH6508
Flight time 0h 37m
Altitude 21000
Route CINDY8S/18 CINDY Z74 HAREM T104 ROKIL ROKIL1B
Aircraft B38M/M-SDE1FGHILORVWXY/HB1

Departure

Time 2026-05-05 19:08
Airport Frankfurt Main Airport (EDDF)

Arrival

Time 2026-05-05 19:45
Airport Munich Airport (EDDM)
Time Latitude Longitude Altitude Speed Heading
2026-05-05 18:31 50.04991 8.57598 363 ft 0 kts 28°
2026-05-05 18:52 50.04968 8.57579 358 ft 4 kts 28°
2026-05-05 18:53 50.04945 8.57559 365 ft 3 kts 33°
2026-05-05 18:53 50.04934 8.57544 363 ft 2 kts 74°
2026-05-05 18:53 50.04935 8.57528 358 ft 2 kts 115°
2026-05-05 18:53 50.04937 8.57522 365 ft 0 kts 116°
2026-05-05 18:59 50.04936 8.57522 365 ft 0 kts 118°
2026-05-05 18:59 50.04928 8.57550 362 ft 7 kts 114°
2026-05-05 18:59 50.04902 8.57646 365 ft 15 kts 112°
2026-05-05 18:59 50.04863 8.57797 361 ft 13 kts 110°
2026-05-05 19:00 50.04817 8.57898 365 ft 15 kts 144°
2026-05-05 19:00 50.04723 8.57903 365 ft 8 kts 232°
2026-05-05 19:00 50.04680 8.57781 365 ft 18 kts 246°
2026-05-05 19:00 50.04629 8.57559 360 ft 26 kts 247°
2026-05-05 19:01 50.04550 8.57263 364 ft 27 kts 248°
2026-05-05 19:01 50.04494 8.56995 363 ft 21 kts 254°
2026-05-05 19:01 50.04443 8.56785 363 ft 21 kts 250°
2026-05-05 19:01 50.04387 8.56565 361 ft 23 kts 252°
2026-05-05 19:02 50.04329 8.56322 359 ft 25 kts 249°
2026-05-05 19:02 50.04264 8.56061 359 ft 27 kts 249°
2026-05-05 19:02 50.04197 8.55780 363 ft 29 kts 251°
2026-05-05 19:02 50.04124 8.55484 362 ft 30 kts 248°
2026-05-05 19:03 50.04051 8.55195 362 ft 29 kts 252°
2026-05-05 19:03 50.03991 8.54899 358 ft 29 kts 253°
2026-05-05 19:03 50.03922 8.54619 358 ft 29 kts 248°
2026-05-05 19:03 50.03838 8.54328 352 ft 30 kts 238°
2026-05-05 19:04 50.03751 8.54025 352 ft 31 kts 249°
2026-05-05 19:04 50.03679 8.53706 346 ft 32 kts 249°
2026-05-05 19:04 50.03599 8.53414 346 ft 28 kts 251°
2026-05-05 19:04 50.03533 8.53122 339 ft 29 kts 250°
2026-05-05 19:05 50.03459 8.52837 337 ft 15 kts 247°
2026-05-05 19:05 50.03481 8.52708 337 ft 1 kts 318°
2026-05-05 19:05 50.03480 8.52704 337 ft 1 kts 272°
2026-05-05 19:06 50.03450 8.52655 337 ft 14 kts 223°
2026-05-05 19:06 50.03405 8.52609 336 ft 4 kts 200°
2026-05-05 19:06 50.03374 8.52598 338 ft 5 kts 188°
2026-05-05 19:06 50.03340 8.52596 338 ft 0 kts 178°
2026-05-05 19:07 50.03339 8.52596 338 ft 1 kts 179°
2026-05-05 19:07 50.03310 8.52596 338 ft 14 kts 180°
2026-05-05 19:07 50.02958 8.52600 338 ft 85 kts 178°
2026-05-05 19:08 50.02163 8.52606 337 ft 141 kts 179°
2026-05-05 19:08 50.00642 8.52571 539 ft 184 kts 180°
2026-05-05 19:08 49.99804 8.52612 1142 ft 170 kts 180°
2026-05-05 19:08 49.98636 8.52620 1937 ft 169 kts 182°
2026-05-05 19:09 49.97457 8.52770 2621 ft 172 kts 162°
2026-05-05 19:09 49.96477 8.53819 3267 ft 179 kts 133°
2026-05-05 19:09 49.95773 8.55450 3683 ft 183 kts 124°
2026-05-05 19:09 49.95109 8.57174 4135 ft 185 kts 124°
2026-05-05 19:10 49.94479 8.58878 4830 ft 188 kts 118°
2026-05-05 19:10 49.94179 8.60973 5236 ft 210 kts 97°
2026-05-05 19:10 49.94040 8.63354 5631 ft 233 kts 97°
2026-05-05 19:10 49.93905 8.66003 5986 ft 258 kts 96°
2026-05-05 19:11 49.93519 8.68794 6427 ft 273 kts 119°
2026-05-05 19:11 49.92293 8.71059 7032 ft 276 kts 146°
2026-05-05 19:11 49.90725 8.72803 7844 ft 281 kts 147°
2026-05-05 19:11 49.89141 8.74615 8653 ft 285 kts 143°
2026-05-05 19:12 49.87896 8.77046 9480 ft 294 kts 121°
2026-05-05 19:12 49.86892 8.79845 10132 ft 302 kts 123°
2026-05-05 19:12 49.85821 8.82763 10470 ft 322 kts 122°
2026-05-05 19:12 49.84688 8.85873 10720 ft 339 kts 121°
2026-05-05 19:13 49.83516 8.89102 10804 ft 348 kts 121°
2026-05-05 19:13 49.82322 8.92387 11495 ft 351 kts 121°
2026-05-05 19:13 49.81119 8.95698 12212 ft 355 kts 121°
2026-05-05 19:13 49.79899 8.99048 12985 ft 359 kts 121°
2026-05-05 19:14 49.78679 9.02395 13746 ft 363 kts 121°
2026-05-05 19:14 49.77430 9.05819 14453 ft 366 kts 122°
2026-05-05 19:14 49.76245 9.09341 15134 ft 374 kts 112°
2026-05-05 19:14 49.75584 9.13241 15918 ft 376 kts 106°
2026-05-05 19:15 49.74860 9.17157 16592 ft 378 kts 115°
2026-05-05 19:15 49.73484 9.20577 17335 ft 376 kts 132°
2026-05-05 19:15 49.71801 9.23691 17995 ft 380 kts 132°
2026-05-05 19:15 49.70081 9.26820 18637 ft 383 kts 133°
2026-05-05 19:16 49.68336 9.29952 19258 ft 385 kts 133°
2026-05-05 19:16 49.66577 9.33078 19862 ft 387 kts 133°
2026-05-05 19:16 49.64795 9.36228 20468 ft 390 kts 133°
2026-05-05 19:16 49.62994 9.39402 20758 ft 395 kts 133°
2026-05-05 19:17 49.61157 9.42639 20793 ft 408 kts 133°
2026-05-05 19:17 49.59260 9.45977 20800 ft 417 kts 133°
2026-05-05 19:17 49.57340 9.49351 20798 ft 421 kts 133°
2026-05-05 19:17 49.55430 9.52704 20815 ft 422 kts 133°
2026-05-05 19:18 49.53495 9.56096 20830 ft 422 kts 133°
2026-05-05 19:18 49.51556 9.59489 20829 ft 422 kts 133°
2026-05-05 19:18 49.49614 9.62885 20827 ft 422 kts 133°
2026-05-05 19:18 49.47673 9.66273 20825 ft 422 kts 133°
2026-05-05 19:19 49.45734 9.69655 20834 ft 422 kts 133°
2026-05-05 19:19 49.43792 9.73038 20826 ft 422 kts 133°
2026-05-05 19:19 49.41852 9.76412 20833 ft 422 kts 133°
2026-05-05 19:19 49.39911 9.79784 20827 ft 422 kts 133°
2026-05-05 19:20 49.37970 9.83147 20829 ft 422 kts 133°
2026-05-05 19:20 49.36014 9.86526 20822 ft 422 kts 133°
2026-05-05 19:20 49.34062 9.89897 20826 ft 423 kts 133°
2026-05-05 19:20 49.32108 9.93266 20829 ft 423 kts 134°
2026-05-05 19:21 49.30157 9.96627 20829 ft 423 kts 134°
2026-05-05 19:21 49.28197 9.99997 20830 ft 423 kts 134°
2026-05-05 19:21 49.26238 10.03363 20832 ft 423 kts 134°
2026-05-05 19:21 49.24283 10.06717 20831 ft 423 kts 134°
2026-05-05 19:22 49.22319 10.10082 20836 ft 423 kts 134°
2026-05-05 19:22 49.20355 10.13443 20836 ft 423 kts 134°
2026-05-05 19:22 49.18394 10.16798 20842 ft 423 kts 134°
2026-05-05 19:22 49.16432 10.20150 20848 ft 423 kts 134°
2026-05-05 19:23 49.14485 10.23447 20837 ft 423 kts 135°
2026-05-05 19:23 49.12483 10.26672 20845 ft 410 kts 135°
2026-05-05 19:23 49.10542 10.29802 20870 ft 404 kts 135°
2026-05-05 19:23 49.08620 10.32904 20866 ft 402 kts 135°
2026-05-05 19:24 49.06698 10.36005 20862 ft 402 kts 135°
2026-05-05 19:24 49.04776 10.39103 20860 ft 401 kts 135°
2026-05-05 19:24 49.02857 10.42195 20858 ft 401 kts 135°
2026-05-05 19:24 49.00940 10.45275 20867 ft 401 kts 136°
2026-05-05 19:25 48.99014 10.48348 20868 ft 401 kts 136°
2026-05-05 19:25 48.97094 10.51410 20718 ft 396 kts 136°
2026-05-05 19:25 48.95186 10.54450 20027 ft 397 kts 136°
2026-05-05 19:25 48.93290 10.57469 19617 ft 392 kts 136°
2026-05-05 19:26 48.91411 10.60459 19170 ft 393 kts 136°
2026-05-05 19:26 48.89528 10.63449 18827 ft 391 kts 136°
2026-05-05 19:26 48.87645 10.66436 18490 ft 390 kts 136°
2026-05-05 19:26 48.85775 10.69401 18161 ft 389 kts 136°
2026-05-05 19:27 48.83903 10.72365 17786 ft 387 kts 136°
2026-05-05 19:27 48.82041 10.75310 17408 ft 386 kts 136°
2026-05-05 19:27 48.80178 10.78241 17034 ft 384 kts 136°
2026-05-05 19:27 48.78326 10.81152 16851 ft 383 kts 136°
2026-05-05 19:28 48.76471 10.84064 16838 ft 383 kts 136°
2026-05-05 19:28 48.74618 10.86970 16841 ft 384 kts 136°
2026-05-05 19:28 48.72763 10.89873 16829 ft 383 kts 136°
2026-05-05 19:28 48.70910 10.92775 16834 ft 383 kts 136°
2026-05-05 19:29 48.69077 10.95636 16830 ft 383 kts 137°
2026-05-05 19:29 48.67198 10.98565 16832 ft 383 kts 137°
2026-05-05 19:29 48.65366 11.01416 16833 ft 383 kts 137°
2026-05-05 19:29 48.63505 11.04309 16825 ft 383 kts 137°
2026-05-05 19:30 48.61645 11.07196 16830 ft 383 kts 137°
2026-05-05 19:30 48.59787 11.10080 16826 ft 383 kts 137°
2026-05-05 19:30 48.57892 11.12912 16821 ft 381 kts 143°
2026-05-05 19:30 48.55785 11.15314 16825 ft 382 kts 140°
2026-05-05 19:31 48.54231 11.18553 16804 ft 388 kts 115°
2026-05-05 19:31 48.53477 11.22448 16378 ft 387 kts 107°
2026-05-05 19:31 48.52685 11.26332 15769 ft 387 kts 111°
2026-05-05 19:31 48.51813 11.30150 15282 ft 384 kts 112°
2026-05-05 19:32 48.50903 11.33927 14790 ft 382 kts 113°
2026-05-05 19:32 48.49979 11.37664 14343 ft 379 kts 113°
2026-05-05 19:32 48.49047 11.41371 13881 ft 376 kts 114°
2026-05-05 19:32 48.48113 11.45048 13403 ft 375 kts 114°
2026-05-05 19:33 48.47179 11.48705 12912 ft 372 kts 114°
2026-05-05 19:33 48.46249 11.52341 12422 ft 370 kts 114°
2026-05-05 19:33 48.45327 11.55932 12142 ft 362 kts 114°
2026-05-05 19:33 48.44435 11.59408 12025 ft 350 kts 113°
2026-05-05 19:34 48.43938 11.62928 11873 ft 350 kts 94°
2026-05-05 19:34 48.44097 11.66569 11634 ft 345 kts 86°
2026-05-05 19:34 48.44338 11.70113 11478 ft 335 kts 85°
2026-05-05 19:35 48.44830 11.76859 10938 ft 312 kts 85°
2026-05-05 19:35 48.45071 11.80066 10588 ft 303 kts 85°
2026-05-05 19:35 48.45309 11.83196 10109 ft 299 kts 85°
2026-05-05 19:35 48.45544 11.86294 9586 ft 296 kts 85°
2026-05-05 19:36 48.45776 11.89361 9025 ft 295 kts 85°
2026-05-05 19:36 48.46007 11.92422 8494 ft 292 kts 84°
2026-05-05 19:36 48.46236 11.95458 7994 ft 289 kts 84°
2026-05-05 19:36 48.46458 11.98418 7675 ft 280 kts 84°
2026-05-05 19:37 48.46670 12.01248 7397 ft 270 kts 84°
2026-05-05 19:37 48.46875 12.04011 7102 ft 262 kts 84°
2026-05-05 19:37 48.47078 12.06730 6684 ft 261 kts 84°
2026-05-05 19:37 48.47278 12.09439 6270 ft 259 kts 84°
2026-05-05 19:38 48.47476 12.12124 5821 ft 258 kts 83°
2026-05-05 19:38 48.47675 12.14819 5298 ft 261 kts 83°
2026-05-05 19:38 48.47812 12.17544 4856 ft 260 kts 96°
2026-05-05 19:38 48.47282 12.19990 5504 ft 246 kts 124°
2026-05-05 19:39 48.46060 12.21837 6129 ft 251 kts 153°
2026-05-05 19:39 48.44375 12.22640 6226 ft 266 kts 180°
2026-05-05 19:39 48.42566 12.22075 6422 ft 267 kts 206°
2026-05-05 19:39 48.41101 12.20380 6680 ft 261 kts 225°
2026-05-05 19:40 48.39949 12.18340 6567 ft 255 kts 238°
2026-05-05 19:40 48.39181 12.15928 6165 ft 258 kts 253°
2026-05-05 19:40 48.38847 12.13308 5656 ft 263 kts 264°
2026-05-05 19:40 48.38736 12.10517 5028 ft 273 kts 267°
2026-05-05 19:41 48.38747 12.07666 4763 ft 267 kts 268°
2026-05-05 19:41 48.38710 12.04965 4283 ft 253 kts 259°
2026-05-05 19:41 48.38457 12.02372 3540 ft 250 kts 256°
2026-05-05 19:41 48.38056 11.99853 3118 ft 231 kts 254°
2026-05-05 19:42 48.37558 11.97683 2851 ft 215 kts 256°
2026-05-05 19:42 48.37322 11.95575 2652 ft 192 kts 275°
2026-05-05 19:42 48.37542 11.93689 2518 ft 179 kts 274°
2026-05-05 19:42 48.37585 11.91898 2387 ft 162 kts 258°
2026-05-05 19:43 48.37411 11.90338 2348 ft 151 kts 258°
2026-05-05 19:43 48.37195 11.88835 2301 ft 140 kts 263°
2026-05-05 19:43 48.37106 11.87411 2210 ft 141 kts 262°
2026-05-05 19:43 48.36987 11.85922 2049 ft 141 kts 261°
2026-05-05 19:44 48.36857 11.84484 1817 ft 140 kts 265°
2026-05-05 19:44 48.36759 11.83043 1629 ft 136 kts 263°
2026-05-05 19:44 48.36655 11.81650 1482 ft 132 kts 261°
2026-05-05 19:44 48.36550 11.80403 1465 ft 110 kts 264°
2026-05-05 19:45 48.36488 11.79520 1467 ft 63 kts 264°
2026-05-05 19:45 48.36395 11.78897 1471 ft 59 kts 238°
2026-05-05 19:45 48.36239 11.78574 1460 ft 22 kts 232°
2026-05-05 19:45 48.36226 11.78549 1463 ft 3 kts 232°
2026-05-05 19:46 48.36205 11.78509 1463 ft 6 kts 232°
2026-05-05 19:46 48.36176 11.78454 1463 ft 6 kts 232°
2026-05-05 19:46 48.36149 11.78401 1467 ft 7 kts 237°
2026-05-05 19:46 48.36132 11.78334 1464 ft 7 kts 258°
2026-05-05 19:47 48.36121 11.78251 1466 ft 9 kts 261°
2026-05-05 19:47 48.36113 11.78144 1469 ft 11 kts 265°
2026-05-05 19:47 48.36101 11.78016 1463 ft 14 kts 257°
2026-05-05 19:47 48.36086 11.77868 1465 ft 15 kts 263°
2026-05-05 19:48 48.36073 11.77712 1462 ft 10 kts 236°
2026-05-05 19:48 48.36055 11.77685 1460 ft 1 kts 212°
2026-05-05 19:48 48.36046 11.77680 1466 ft 2 kts 201°
2026-05-05 19:48 48.36026 11.77672 1467 ft 3 kts 186°
2026-05-05 19:49 48.35998 11.77672 1469 ft 5 kts 175°
2026-05-05 19:49 48.35972 11.77675 1463 ft 6 kts 175°
2026-05-05 19:49 48.35898 11.77688 1466 ft 10 kts 173°
2026-05-05 19:49 48.35824 11.77702 1464 ft 12 kts 173°
2026-05-05 19:50 48.35736 11.77713 1467 ft 14 kts 175°
2026-05-05 19:50 48.35634 11.77729 1461 ft 16 kts 173°
2026-05-05 19:50 48.35519 11.77751 1467 ft 18 kts 173°
2026-05-05 19:50 48.35457 11.77760 1467 ft 2 kts 188°
2026-05-05 19:51 48.35447 11.77756 1465 ft 2 kts 195°
2026-05-05 19:51 48.35437 11.77747 1469 ft 3 kts 208°
2026-05-05 19:51 48.35433 11.77744 1469 ft 1 kts 208°
2026-05-05 19:51 48.35431 11.77739 1461 ft 0 kts 236°
2026-05-05 19:52 48.35427 11.77730 1462 ft 2 kts 239°
2026-05-05 19:52 48.35423 11.77712 1461 ft 2 kts 257°
2026-05-05 19:52 48.35421 11.77686 1469 ft 4 kts 267°
2026-05-05 19:52 48.35421 11.77671 1469 ft 0 kts 267°
2026-05-05 19:53 48.35421 11.77664 1469 ft 0 kts 267°